Regional Weather Roundup
Issued by NWS

Home | Current Version | Previous Version | Text Only | Print | Product List | Glossary On
Versions: 1 2 3 4 5 6 7 8 9 10 11 12 13 14 15 16 17 18 19 20 21 22 23 24 25 26 27 28 29 30 31 32 33 34 35 36 37 38 39 40 41 42 43 44 45 46 47 48 49 50
000
ASUS45 KBOI 281510
RWRID

IDAHO REGIONAL WEATHER ROUNDUP
NATIONAL WEATHER SERVICE BOISE ID
900 AM MDT FRI AUG 28 2015

NOTE: "FAIR" INDICATES FEW OR NO CLOUDS BELOW 12000 FEET
WITH NO SIGNIFICANT WEATHER AND/OR OBSTRUCTIONS TO VISIBILITY

IDZ012-014-281600-
SOUTHWEST IDAHO


CITY           SKY/WX    TMP DP  RH WIND       PRES   REMARKS
BOISE          MOSUNNY   72  39  30 CALM      30.05R
CALDWELL       MOSUNNY   66  43  42 NE6       30.04R
MOUNTAIN HOME  PTSUNNY   70  43  36 E17G25    30.03S
$$

IDZ016-017-281600-
SOUTHCENTRAL IDAHO


CITY           SKY/WX    TMP DP  RH WIND       PRES   REMARKS
BURLEY         SUNNY     60  46  59 E6        30.15S
JEROME         MOSUNNY   66  42  41 NE12      30.14R
TWIN FALLS     MOSUNNY   77  36  22 NW3       30.14S
$$

IDZ019>023-281600-
SOUTHEAST IDAHO


CITY           SKY/WX    TMP DP  RH WIND       PRES   REMARKS
IDAHO FALLS    SUNNY     57  46  66 NE5       30.25R
POCATELLO      SUNNY     66  44  45 NE7       30.21S
REXBURG        SUNNY     55  44  66 NE3       30.25S
$$

IDZ006-010-011-018-031-032-281600-
CENTRAL IDAHO MOUNTAINS


CITY           SKY/WX    TMP DP  RH WIND       PRES   REMARKS
MCCALL         PTSUNNY   56  40  55 CALM      30.16S HAZE
HAILEY         MOSUNNY   59  41  51 NW12      30.27S
STANLEY          N/A     46  30  53 CALM      30.34S
SALMON         CLOUDY    54  45  71 CALM      30.20S
CHALLIS        SUNNY     57  37  47 CALM      30.26R HAZE
$$

IDZ002-004-006-007-026-281600-
NORTHERN IDAHO


CITY           SKY/WX    TMP DP  RH WIND       PRES   REMARKS
LEWISTON       CLOUDY    67  43  41 SE5       29.95R
LOWELL           N/A     57  50  77 NW6       30.01F
COEUR D`ALENE  PTSUNNY   66  48  52 CALM      29.96F
MULLAN PASS    MOSUNNY   60  36  40 VRB5      30.17S HAZE
$$



USA.gov is the U.S. government's official web portal to all federal, state and local government web resources and services.